Wind_Speed
54 54 53 52 49 45 44 43 40 40 39 36 34 30 27 29 31 30 37 41 46 36 40 39 39 40 40 36 35 33 32 30 27 25 22 20 17 14 12 10 9 8 7 7 6
54 53 52 51 49 44 42 43 41 41 40 37 34 29 28 27 27 29 35 40 35 41 40 40 38 39 39 36 36 35 31 30 28 26 24 22 19 15 13 12 11 9 8 8 7
54 53 52 52 50 48 44 44 42 43 42 40 36 32 28 25 27 26 25 30 32 33 35 39 43 41 40 37 37 36 35 33 30 28 25 22 19 17 14 12 10 10 11 10 8
56 53 51 51 49 50 49 45 43 43 44 44 41 36 32 28 27 23 20 30 33 31 36 39 41 40 39 37 37 36 37 35 33 29 26 24 20 18 16 13 11 13 12 11 9
56 54 52 49 49 47 47 46 44 44 46 46 43 40 35 30 30 26 26 26 38 33 31 33 35 35 37 37 37 37 37 37 35 31 29 26 22 18 17 14 13 14 14 13 12
57 55 52 49 47 46 47 46 44 44 46 48 47 43 39 36 34 32 31 31 34 33 33 37 35 40 44 39 40 38 36 37 35 33 31 29 24 21 21 17 16 14 15 16 14
57 56 54 51 48 47 46 44 43 45 45 48 49 47 43 42 39 32 36 31 33 36 35 36 37 38 37 37 37 37 36 37 34 35 33 30 26 21 24 19 19 18 18 18 17
63 59 57 54 52 49 46 45 45 43 44 46 50 49 49 48 45 42 40 38 33 33 41 39 39 37 35 35 36 37 36 36 36 35 34 33 25 26 26 23 22 20 20 20 20
64 63 59 56 54 52 50 49 46 44 43 45 48 52 48 46 48 45 43 43 39 37 34 37 38 36 36 36 36 38 39 37 36 36 35 34 26 29 29 27 25 23 22 22 23
60 61 63 61 56 55 53 51 49 47 45 44 46 48 51 49 50 50 48 44 43 41 39 37 36 40 38 34 34 33 35 35 35 35 37 35 30 32 30 28 26 25 24 25 25
63 65 64 60 60 57 54 52 52 52 49 47 47 47 49 51 51 51 51 49 45 45 44 43 38 38 36 38 33 30 33 33 36 37 37 37 34 33 33 30 30 28 27 27 28
58 56 63 61 59 58 54 53 50 48 48 49 47 46 47 49 51 50 50 50 52 47 46 46 47 36 37 41 36 41 38 40 37 33 35 37 36 35 35 32 32 31 30 29 29
62 57 58 58 59 58 54 57 56 55 54 53 50 48 47 48 50 50 50 49 50 48 46 43 43 47 41 41 41 41 39 39 37 36 38 40 40 36 35 35 32 32 32 30 30
63 64 65 65 58 56 52 55 59 60 58 58 57 53 50 51 52 51 53 52 52 51 49 48 46 43 41 40 41 43 38 38 44 43 43 40 41 36 35 35 35 34 33 32 31
52 57 49 46 51 50 57 53 55 65 63 57 58 56 56 55 52 54 54 54 53 53 52 51 51 50 49 43 42 38 40 40 43 45 45 42 40 37 36 35 35 35 32 31 32
40 45 52 53 52 60 63 63 61 66 61 55 54 57 58 57 57 55 55 55 55 54 52 53 49 48 47 45 43 45 44 41 40 43 43 40 41 43 36 33 33 32 30 31 32
45 45 51 54 46 52 64 68 65 57 54 50 51 50 54 55 59 59 58 58 58 57 57 56 54 51 50 49 47 47 46 47 48 47 43 42 43 42 38 34 31 29 31 33 33
45 48 50 48 50 62 59 61 58 55 56 47 49 51 51 51 56 56 59 59 60 57 56 55 56 53 52 50 48 48 46 45 45 45 44 44 43 40 41 39 36 35 35 35 34
49 45 51 54 57 59 59 60 55 52 50 51 52 49 47 54 52 52 55 60 60 58 58 58 59 57 55 53 52 51 51 47 48 48 48 48 46 44 43 44 43 40 39 39 39
47 35 46 52 58 56 58 54 53 51 49 51 51 48 49 50 51 52 52 50 50 61 59 56 57 57 57 56 56 54 52 51 51 52 53 51 50 48 47 47 47 46 43 42 42
46 43 42 47 55 61 68 51 53 50 48 51 51 51 52 53 53 54 49 47 52 55 59 62 60 58 56 57 56 57 57 56 56 55 54 54 55 52 51 51 50 49 48 47 45
42 47 38 46 57 61 62 59 58 53 55 53 53 53 52 53 53 55 52 49 47 48 54 53 59 60 60 57 55 55 55 56 57 58 58 58 64 57 55 55 53 52 51 48 45
47 49 52 58 61 60 62 59 63 61 60 55 52 52 52 53 51 49 47 47 49 46 49 52 55 57 59 59 58 61 61 62 61 62 65 63 63 65 62 57 56 55 54 51 48
50 62 70 59 62 58 60 60 61 59 57 55 55 53 54 51 49 50 47 46 47 49 48 48 48 52 53 51 55 57 58 60 60 61 65 66 60 61 58 54 52 48 47 47 48
55 63 68 64 56 54 53 57 61 62 59 57 55 54 54 53 51 50 48 48 47 48 49 51 51 48 45 47 53 56 58 59 61 58 63 53 60 58 57 55 52 52 52 52 52
69 56 60 61 55 55 52 53 65 64 59 54 56 56 54 57 55 52 51 49 49 48 48 48 50 49 52 48 46 50 51 51 54 54 58 53 57 61 63 63 62 57 56 57 57
69 70 57 57 56 60 58 56 55 54 56 57 60 56 52 53 56 53 50 49 53 53 51 51 50 50 50 53 52 55 48 48 44 44 42 47 38 48 52 52 54 53 54 55 58
Wind_Direction
212 211 208 210 211 210 212 208 208 211 212 209 211 210 212 217 216 213 212 231 228 209 203 203 203 198 196 193 195 190 192 187 186 188 186 186 185 183 185 194 199 212 220 208 207
214 214 210 210 211 212 215 213 206 211 206 208 209 207 206 206 207 215 222 224 225 210 198 201 206 202 200 195 196 194 193 190 189 191 193 191 190 187 191 198 204 213 222 229 214
212 214 213 212 208 210 216 217 209 209 204 204 206 205 207 205 207 210 207 208 210 197 201 203 205 202 203 197 199 195 194 193 194 194 197 198 196 195 195 201 213 219 220 223 224
214 213 213 213 213 208 212 218 214 207 205 202 201 203 201 204 202 199 198 200 196 196 202 204 210 203 205 202 206 200 200 198 197 198 198 204 200 202 203 200 209 225 231 232 226
215 214 214 213 214 210 211 213 215 211 204 203 203 200 199 198 201 193 193 196 201 194 199 203 204 206 210 210 209 207 205 204 201 201 204 208 208 213 217 211 217 221 230 233 231
213 213 214 214 214 213 212 210 214 213 208 202 204 201 199 199 202 199 195 198 201 201 203 209 206 212 211 209 211 212 211 211 204 207 209 210 211 214 226 222 230 233 231 232 235
214 214 213 214 213 214 214 212 213 214 210 207 205 204 203 204 202 203 201 196 200 205 203 205 211 213 215 214 213 216 214 216 211 211 213 218 215 219 231 227 230 235 238 237 238
218 216 213 213 213 214 213 213 213 214 214 211 208 209 208 205 206 205 203 203 202 205 206 208 212 220 218 220 219 219 219 219 218 220 218 223 219 224 232 233 234 236 243 241 237
220 215 214 212 211 211 210 212 211 214 215 215 212 211 210 208 210 208 207 208 207 209 204 206 216 217 225 224 224 222 222 224 227 228 227 227 225 231 234 236 236 236 240 240 239
218 215 216 213 209 210 209 209 211 212 214 216 215 214 212 210 211 211 212 211 213 212 214 213 209 214 218 221 226 229 230 230 232 233 234 234 233 235 237 242 244 240 239 240 242
216 216 218 213 210 208 210 211 212 214 215 218 217 216 215 212 213 212 215 216 217 214 219 223 220 218 221 229 233 232 230 232 234 236 238 238 239 242 243 244 246 245 239 239 242
222 216 221 216 214 207 211 214 213 218 217 217 216 217 216 215 215 216 215 217 218 219 219 222 222 218 218 220 231 229 232 236 239 243 245 245 243 244 247 246 247 247 245 243 242
218 213 220 217 218 218 216 214 210 211 214 215 212 214 216 214 216 217 219 219 219 219 217 222 225 230 230 224 233 236 236 237 240 249 252 248 245 243 245 249 246 248 249 248 248
213 220 225 217 218 221 211 212 215 213 212 215 215 210 214 214 215 217 218 218 219 219 218 219 219 224 225 225 229 228 233 238 242 239 247 245 243 243 246 248 251 250 249 252 252
211 215 212 218 213 219 216 214 221 218 213 213 215 215 214 213 213 217 218 219 220 220 220 224 226 228 231 227 228 227 233 237 235 237 245 248 251 241 241 246 251 251 252 252 254
202 205 210 215 219 219 213 212 218 220 214 217 221 217 217 217 214 216 219 220 221 222 221 222 224 226 227 228 230 232 236 240 239 241 243 244 249 247 243 246 249 252 253 254 253
205 206 210 212 209 220 216 215 215 216 220 216 222 221 221 222 221 217 220 222 224 224 223 224 225 226 228 230 232 233 233 236 241 244 244 244 249 251 253 251 248 248 251 253 253
206 210 213 210 213 219 217 216 220 219 218 222 223 224 224 223 223 221 224 224 224 226 229 232 233 232 232 235 237 241 242 244 247 248 250 251 251 249 253 255 251 246 246 250 254
202 203 212 216 211 214 218 220 226 219 216 223 226 224 224 223 225 224 225 227 228 231 232 232 233 233 236 238 239 240 242 244 247 249 251 252 250 250 251 254 253 255 256 256 259
200 213 208 207 209 215 219 219 212 219 220 221 223 225 228 229 230 227 225 230 232 231 234 237 237 238 239 239 240 241 243 245 246 248 251 252 254 254 253 257 261 261 261 260 260
205 215 205 211 211 219 219 217 219 225 223 223 227 227 228 227 229 230 231 235 233 231 233 234 238 239 238 239 242 244 245 246 247 246 252 259 257 255 257 259 260 263 266 266 267
196 214 216 215 213 215 215 219 225 224 222 224 227 229 227 229 230 232 228 229 229 231 236 237 239 239 240 242 243 243 244 245 247 247 248 254 253 259 259 259 259 262 265 268 271
199 209 219 224 220 214 211 216 221 225 220 223 223 226 226 227 229 227 225 228 230 229 230 231 233 234 237 239 241 242 241 242 242 244 246 248 255 253 255 259 262 265 267 269 272
204 209 209 221 219 219 215 213 216 214 220 221 225 227 225 226 228 228 226 225 225 229 231 232 236 240 245 252 250 248 250 248 246 247 253 254 258 258 258 260 262 265 269 271 269
199 203 209 210 216 217 219 218 222 219 221 225 226 221 224 226 228 229 227 227 225 230 235 238 236 238 242 247 249 247 245 246 247 249 250 254 253 253 257 261 262 263 262 264 267
203 199 205 206 209 216 217 218 220 218 221 223 223 223 224 226 228 232 232 231 233 231 232 237 242 242 241 244 243 243 244 245 247 249 250 253 254 252 251 253 258 262 265 267 266
210 205 202 203 204 210 214 219 218 212 216 220 223 227 228 229 231 234 235 233 235 235 238 241 241 242 244 244 244 247 247 252 254 249 254 253 260 261 258 257 259 263 263 262 262
Height
5709 5717 5724 5731 5739 5745 5752 5759 5764 5772 5776 5781 5786 5789 5791 5794 5797 5799 5803 5807 5811 5816 5823 5829 5834 5837 5842 5847 5854 5857 5861 5866 5870 5873 5875 5876 5877 5880 5880 5881 5882 5884 5885 5885 5886
5701 5710 5716 5724 5730 5737 5745 5751 5756 5764 5769 5775 5780 5784 5787 5791 5793 5795 5799 5801 5805 5810 5818 5826 5832 5836 5841 5844 5850 5854 5860 5864 5867 5870 5873 5875 5876 5877 5880 5881 5881 5882 5884 5885 5884
5691 5701 5710 5718 5724 5730 5738 5746 5751 5757 5762 5768 5774 5779 5782 5786 5790 5793 5795 5798 5802 5808 5816 5823 5828 5832 5840 5841 5847 5852 5856 5860 5864 5867 5870 5873 5875 5875 5876 5879 5880 5881 5881 5882 5883
5682 5692 5701 5711 5718 5724 5731 5740 5745 5750 5756 5762 5769 5775 5778 5783 5788 5790 5793 5797 5802 5806 5813 5818 5827 5830 5836 5839 5846 5849 5853 5855 5859 5864 5867 5871 5872 5873 5874 5875 5877 5879 5879 5880 5880
5673 5683 5694 5703 5712 5718 5724 5732 5739 5746 5750 5756 5763 5769 5774 5779 5784 5788 5792 5796 5801 5804 5810 5816 5822 5827 5833 5837 5842 5846 5850 5853 5856 5859 5863 5867 5869 5870 5871 5873 5873 5875 5877 5878 5878
5663 5674 5685 5695 5704 5711 5718 5724 5731 5739 5744 5749 5756 5763 5769 5776 5780 5785 5790 5795 5800 5804 5807 5812 5818 5825 5829 5832 5837 5842 5846 5850 5852 5856 5859 5863 5865 5867 5868 5870 5870 5872 5873 5875 5875
5653 5664 5675 5685 5695 5705 5712 5716 5724 5732 5738 5743 5750 5757 5763 5770 5775 5780 5785 5790 5796 5801 5804 5809 5816 5821 5826 5829 5833 5838 5841 5846 5849 5853 5856 5860 5862 5864 5862 5867 5868 5868 5869 5871 5873
5647 5656 5666 5676 5686 5696 5703 5710 5718 5725 5731 5737 5744 5751 5758 5764 5770 5775 5780 5786 5792 5798 5802 5805 5811 5816 5820 5825 5829 5833 5837 5840 5844 5849 5852 5856 5859 5859 5858 5862 5864 5864 5867 5868 5869
5638 5648 5657 5667 5677 5686 5694 5703 5710 5717 5724 5731 5737 5745 5752 5757 5764 5770 5775 5780 5785 5792 5796 5800 5805 5812 5817 5821 5824 5828 5833 5836 5840 5843 5847 5851 5854 5854 5855 5857 5859 5860 5862 5863 5865
5630 5639 5649 5659 5668 5676 5685 5693 5703 5710 5717 5724 5731 5738 5747 5752 5757 5763 5770 5774 5779 5786 5791 5797 5800 5806 5811 5815 5820 5825 5829 5832 5834 5838 5840 5844 5847 5848 5850 5853 5855 5856 5857 5858 5859
5620 5631 5641 5649 5659 5667 5677 5686 5696 5704 5711 5719 5725 5731 5739 5744 5751 5756 5763 5769 5774 5779 5786 5792 5797 5802 5807 5810 5814 5817 5821 5825 5827 5831 5834 5837 5840 5842 5845 5848 5849 5851 5852 5852 5854
5610 5621 5630 5641 5648 5658 5670 5681 5691 5701 5705 5710 5717 5724 5731 5737 5744 5751 5757 5764 5769 5774 5780 5786 5790 5796 5797 5803 5808 5812 5815 5819 5821 5824 5828 5830 5834 5836 5838 5842 5843 5844 5847 5848 5848
5604 5615 5624 5632 5641 5652 5663 5671 5677 5686 5692 5700 5707 5715 5723 5731 5737 5744 5751 5757 5763 5769 5775 5780 5787 5789 5793 5797 5802 5806 5808 5810 5813 5817 5820 5824 5827 5830 5832 5833 5836 5838 5840 5842 5843
5595 5606 5613 5622 5634 5644 5654 5660 5665 5673 5679 5689 5697 5704 5713 5721 5728 5736 5742 5749 5755 5762 5766 5770 5778 5783 5787 5791 5794 5797 5800 5802 5806 5810 5814 5817 5819 5822 5824 5825 5828 5831 5833 5834 5836
5586 5596 5605 5617 5629 5639 5646 5649 5654 5660 5666 5679 5686 5696 5704 5712 5722 5727 5734 5740 5748 5753 5759 5765 5770 5777 5781 5787 5787 5791 5794 5797 5799 5802 5805 5809 5809 5817 5818 5819 5821 5823 5826 5827 5829
5580 5589 5599 5609 5620 5626 5627 5634 5642 5649 5656 5668 5678 5686 5694 5702 5711 5717 5724 5731 5738 5744 5750 5754 5761 5767 5772 5777 5779 5783 5786 5788 5791 5793 5795 5801 5803 5807 5811 5812 5814 5816 5818 5819 5821
5573 5581 5592 5602 5613 5612 5614 5624 5630 5638 5655 5663 5672 5680 5688 5694 5701 5707 5714 5720 5726 5733 5739 5744 5750 5757 5763 5767 5770 5774 5777 5780 5783 5785 5788 5793 5794 5801 5802 5806 5807 5809 5810 5811 5812
5567 5573 5582 5592 5598 5598 5607 5614 5622 5639 5648 5656 5664 5671 5678 5684 5691 5700 5705 5710 5718 5725 5732 5738 5744 5749 5755 5760 5766 5768 5771 5775 5775 5779 5782 5783 5787 5794 5794 5795 5798 5801 5802 5803 5804
5559 5565 5572 5580 5586 5593 5597 5604 5622 5631 5641 5648 5654 5661 5667 5674 5682 5688 5695 5703 5712 5719 5724 5727 5732 5738 5744 5749 5754 5758 5761 5767 5767 5769 5771 5775 5781 5783 5786 5785 5787 5790 5793 5794 5795
5549 5556 5564 5570 5578 5582 5586 5601 5613 5622 5630 5637 5644 5652 5660 5668 5673 5678 5684 5694 5700 5708 5713 5716 5721 5727 5732 5737 5741 5747 5752 5754 5756 5759 5760 5764 5767 5773 5776 5778 5778 5780 5782 5783 5784
5541 5546 5553 5559 5568 5568 5576 5595 5601 5609 5619 5628 5635 5642 5648 5656 5663 5668 5677 5685 5691 5697 5699 5703 5710 5714 5718 5724 5732 5735 5737 5742 5745 5748 5751 5755 5758 5763 5765 5766 5767 5768 5769 5770 5772
5531 5536 5541 5547 5550 5556 5572 5583 5592 5600 5608 5617 5624 5631 5639 5646 5652 5658 5666 5673 5678 5684 5687 5694 5694 5700 5707 5713 5718 5722 5727 5730 5730 5737 5738 5741 5744 5748 5752 5754 5756 5756 5757 5758 5760
5519 5526 5530 5532 5536 5550 5562 5570 5578 5588 5598 5607 5614 5621 5629 5636 5641 5648 5654 5660 5665 5671 5674 5678 5679 5686 5691 5698 5703 5705 5711 5716 5718 5719 5723 5726 5735 5734 5737 5741 5744 5745 5745 5747 5748
5509 5516 5519 5521 5530 5542 5550 5559 5569 5578 5586 5595 5603 5610 5617 5624 5631 5638 5642 5648 5652 5657 5662 5664 5669 5675 5682 5691 5691 5695 5700 5704 5706 5707 5716 5715 5728 5724 5729 5732 5731 5731 5733 5734 5735
5496 5502 5508 5513 5522 5534 5542 5551 5560 5567 5577 5583 5590 5599 5607 5613 5620 5626 5631 5637 5642 5646 5650 5653 5661 5666 5671 5673 5674 5678 5684 5687 5688 5696 5696 5709 5707 5714 5716 5718 5717 5718 5719 5720 5722
5484 5492 5499 5505 5514 5523 5531 5538 5548 5558 5565 5574 5580 5588 5595 5601 5610 5616 5622 5626 5631 5636 5638 5644 5651 5656 5660 5662 5662 5664 5669 5675 5678 5684 5684 5692 5693 5699 5699 5698 5701 5706 5707 5708 5710
5470 5480 5489 5496 5502 5511 5520 5529 5537 5545 5553 5562 5570 5576 5584 5593 5599 5604 5609 5613 5619 5625 5630 5636 5641 5644 5650 5652 5652 5651 5666 5663 5669 5671 5676 5677 5690 5687 5687 5689 5690 5691 5693 5694 5694